Malaga, WA

11:02 PM PST on February 13, 2016 (GMT -0800)
Pangborn Memorial

Weather History for KEAT - August, 2014

Change the Weather History Date:

Thursday, August 14, 2014

  Actual Average Record
Temperature  
Mean Temperature 67 °F 67 °F  
Max Temperature 75 °F 84 °F - ()
Min Temperature 59 °F 51 °F - ()
Degree Days  
Heating Degree Days 0 1  
Month to date heating degree days 0 14  
Since 1 June heating degree days 203 253  
Since 1 July heating degree days 12 66  
Cooling Degree Days 2 4  
Month to date cooling degree days 109 62  
Year to date cooling degree days 353 191  
Since 1 June cooling degree days 353 186  
Growing Degree Days 18 (Base 50)    
Moisture  
Dew Point 59 °F    
Average Humidity 0    
Maximum Humidity 0    
Minimum Humidity 0    
Precipitation  
Precipitation T in 0.02 in - ()
Month to date precipitation 0.23 0.18  
Year to date precipitation 11.62 10.13  
Snow  
Snow 0.00 in 0.00 in - ()
Month to date snowfall 0.0 0.0  
Since 1 June snowfall 0.0 0.0  
Since 1 July snowfall 0.0 0.0  
Snow Depth 0.00 in    
Sea Level Pressure  
Sea Level Pressure 29.95 in    
Wind  
Wind Speed 8 mph (WNW)    
Max Wind Speed 16 mph    
Max Gust Speed 0 mph    
Visibility 9 miles    
Events Rain , Thunderstorm    
T = Trace of Precipitation, MM = Missing Value Source: NWS Daily Summary

Daily Weather History Graph

Daily Weather History Graph

Search for Another Location

Airport or City:

Trip Planner

Search our weather history database for the weather conditions in past years. The results will help you decide how hot, cold, wet, or windy it might be!

Date:

Astronomy

Aug. 14, 2014 Rise Set
Actual Time 5:55 AM PDT 8:14 PM PDT
Civil Twilight 5:22 AM PDT 8:47 PM PDT
Nautical Twilight 4:39 AM PDT 9:29 PM PDT
Astronomical Twilight 3:51 AM PDT 10:17 PM PDT
Moon 10:15 PM PDT 11:01 AM PDT
Length of Visible Light 15h 25m
Length of Day
14h 18m
Waning Gibbous, 78% of the Moon is Illuminated
Aug 14
Waning Gibbous
Aug 17
Last Quarter
Aug 25
New
Sep 2
First Quarter
Sep 8
Full

Hourly Weather History & Observations

Time (PDT) Temp. Dew Point Humidity Pressure Visibility Wind Dir Wind Speed Gust Speed Precip Events Conditions
12:24 AM 73.0 °F 55.0 °F 53% 29.91 in 10.0 mi NW 13.8 mph - N/A Thunderstorm Mostly Cloudy
12:31 AM 73.0 °F 55.0 °F 53% 29.92 in 10.0 mi NW 11.5 mph - N/A Thunderstorm Thunderstorm
12:55 AM 68.0 °F 57.9 °F 70% 29.92 in 9.0 mi SSW 10.4 mph - 0.00 in Rain , Thunderstorm Light Thunderstorms and Rain
1:16 AM 66.9 °F 57.0 °F 70% 29.93 in 10.0 mi NNW 5.8 mph - 0.03 in Rain , Thunderstorm Light Rain
1:55 AM 68.0 °F 55.9 °F 65% 29.91 in 10.0 mi WNW 3.5 mph - 0.04 in Thunderstorm Overcast
2:05 AM 66.9 °F 57.0 °F 70% 29.94 in 10.0 mi WSW 8.1 mph - 0.00 in Rain , Thunderstorm Light Thunderstorms and Rain
2:27 AM 64.0 °F 59.0 °F 84% 29.95 in 1.5 mi NNE 8.1 mph - 0.25 in Rain , Thunderstorm Heavy Thunderstorms and Rain
2:37 AM 63.0 °F 59.0 °F 87% 29.96 in 3.0 mi Calm Calm - 0.31 in Rain , Thunderstorm Thunderstorms and Rain
2:55 AM 66.0 °F 60.1 °F 81% 29.92 in 10.0 mi West 8.1 mph - 0.34 in Rain , Thunderstorm Light Rain
3:15 AM 64.9 °F 59.0 °F 81% 29.94 in 10.0 mi West 11.5 mph - 0.01 in Rain Light Rain
3:55 AM 64.0 °F 59.0 °F 84% 29.92 in 10.0 mi NW 8.1 mph - 0.01 in   Mostly Cloudy
4:55 AM 64.0 °F 57.9 °F 80% 29.92 in 10.0 mi NNW 8.1 mph - N/A   Clear
5:55 AM 64.0 °F 59.0 °F 84% 29.93 in 10.0 mi WNW 6.9 mph - N/A   Overcast
6:22 AM 64.9 °F 59.0 °F 81% 29.98 in 10.0 mi Variable 3.5 mph - 0.00 in Thunderstorm Overcast
6:44 AM 66.0 °F 57.9 °F 75% 29.94 in 8.0 mi WNW 16.1 mph - 0.02 in Rain Light Rain
6:55 AM 64.9 °F 57.9 °F 78% 29.93 in 10.0 mi WSW 8.1 mph - 0.02 in Rain Light Rain
7:55 AM 66.9 °F 59.0 °F 76% 29.95 in 10.0 mi NW 8.1 mph - 0.00 in   Overcast
8:55 AM 66.9 °F 61.0 °F 81% 29.96 in 10.0 mi WNW 6.9 mph - 0.00 in   Mostly Cloudy
9:55 AM 69.1 °F 57.0 °F 65% 29.97 in 10.0 mi NW 5.8 mph - N/A   Overcast
10:55 AM 68.0 °F 59.0 °F 73% 29.96 in 10.0 mi West 8.1 mph - N/A   Overcast
11:55 AM 68.0 °F 57.0 °F 68% 29.97 in 10.0 mi WNW 4.6 mph - N/A   Overcast
12:55 PM 66.9 °F 59.0 °F 76% 29.98 in 7.0 mi Variable 4.6 mph - 0.00 in Rain Light Rain
1:55 PM 66.0 °F 60.1 °F 81% 29.98 in 6.0 mi SSW 4.6 mph - 0.08 in Rain Light Rain
2:04 PM 66.0 °F 61.0 °F 84% 30.00 in 6.0 mi Calm Calm - 0.02 in Rain Light Rain
2:43 PM 68.0 °F 60.1 °F 76% 30.00 in 10.0 mi Calm Calm - 0.03 in   Overcast
2:55 PM 68.0 °F 60.1 °F 76% 29.98 in 10.0 mi Calm Calm - 0.03 in   Overcast
3:55 PM 69.1 °F 59.0 °F 70% 29.96 in 10.0 mi West 4.6 mph - N/A   Mostly Cloudy
4:55 PM 70.0 °F 59.0 °F 68% 29.95 in 10.0 mi West 4.6 mph - N/A   Mostly Cloudy
5:55 PM 71.1 °F 57.9 °F 63% 29.94 in 10.0 mi Calm Calm - N/A   Partly Cloudy
6:55 PM 71.1 °F 60.1 °F 68% 29.94 in 10.0 mi SW 4.6 mph - N/A   Scattered Clouds
7:55 PM 70.0 °F 60.1 °F 71% 29.94 in 10.0 mi WNW 3.5 mph - N/A   Clear
8:55 PM 66.9 °F 60.1 °F 79% 29.95 in 10.0 mi NNW 4.6 mph - N/A   Clear
9:55 PM 66.9 °F 60.1 °F 79% 29.96 in 10.0 mi WNW 8.1 mph - N/A   Partly Cloudy
10:55 PM 66.9 °F 59.0 °F 76% 29.96 in 10.0 mi WNW 9.2 mph - N/A   Partly Cloudy
11:55 PM 64.9 °F 60.1 °F 84% 29.95 in 10.0 mi West 5.8 mph - N/A   Clear